Weather in Fier

Albania     40°43′10″N   19°33′30″E
temp.,
°C
wind,
m/s
gust,
m/s
humid.,
%
clouds,
%
prec.,
mm/h
press.,
hPa
HPBL,
m
7 march, sun
sun701:00+9n33710 0.0 102691
04:00+8nne22760 0.0 102571
07:00+8ene22790 0.0 102582
10:00+12nne22611 0.0 1025440
13:00+13nnw54583 0.0 1023516
16:00+12nnw456112 0.0 1021422
19:00+9n23687 0.0 1021107
22:00+8ne12710 0.0 102199
8 march, mon
mon801:00+7ne127311 0.0 102082
04:00+7ene22726 0.0 101958
07:00+8e12753 0.0 101844
10:00+12n326068 0.0 1018390
13:00+14ne225481 0.1 1017789
16:00+13nnw446774 0.0 1015336
19:00+10ne227742 0.0 101554
22:00+9ene11784 0.0 101637
9 march, tue
tue901:00+9ese117850 0.0 101637
04:00+9ese127885 0.0 101542
07:00+10ese227589 0.0 101554
10:00+14sse1259100 0.0 1016570
13:00+16sw445796 0.0 1015928
16:00+14ssw4764100 0.0 1013656
19:00+13ssw5970100 0.0 1013380
22:00+13s51071100 0.1 1014495
10 march, wed
wed1001:00+12s51082100 0.9 1013647
04:00+11ssw61193100 9.9 1011625
07:00+11nw4790100 21.6 1012523
10:00+12nw5786100 6.0 1013669
13:00+13nw4473100 7.2 1015863
16:00+12nw567293 0.5 1015857
19:00+9w127662 0.5 1016133
22:00+8ne01790 0.0 1019116
11 march, thu
thu1101:00+8n35793 0.0 1020147
04:00+6ne23865 0.0 102085
07:00+7ne34793 0.0 1022173
10:00+11ne45550 0.0 1024614
13:00+13nnw55490 0.0 1024918
16:00+11nnw56550 0.0 1023432
19:00+9n34600 0.0 1025113
22:00+7ene12620 0.0 102687